N166RB KORL-KSRQ

Flight info

Callsign N166RB
Flight time N/A
Altitude 8000
Route LAL
Aircraft BE36/L-V/N

Departure

Time 2026-04-29 02:42
Airport Orlando Executive Airport (KORL)

Arrival

Time N/A
Airport Sarasota Bradenton International Airport (KSRQ)
Time Latitude Longitude Altitude Speed Heading
2026-04-29 02:32 28.54653 -81.34245 104 ft 0 kts 180°
2026-04-29 02:34 28.54652 -81.34245 104 ft 0 kts 168°
2026-04-29 02:35 28.54650 -81.34244 104 ft 0 kts 153°
2026-04-29 02:36 28.54638 -81.34225 104 ft 0 kts 86°
2026-04-29 02:38 28.54649 -81.34206 104 ft 6 kts
2026-04-29 02:38 28.54761 -81.34205 105 ft 24 kts 359°
2026-04-29 02:39 28.54814 -81.34184 105 ft 0 kts 41°
2026-04-29 02:39 28.54817 -81.34181 105 ft 0 kts 41°
2026-04-29 02:40 28.54839 -81.34162 105 ft 9 kts 39°
2026-04-29 02:40 28.54860 -81.34095 105 ft 8 kts 129°
2026-04-29 02:41 28.54768 -81.33980 104 ft 45 kts 131°
2026-04-29 02:41 28.54446 -81.33588 142 ft 77 kts 139°
2026-04-29 02:41 28.54024 -81.33241 302 ft 77 kts 152°
2026-04-29 02:41 28.53548 -81.33071 537 ft 67 kts 161°
2026-04-29 02:42 28.53120 -81.33036 801 ft 61 kts 188°
2026-04-29 02:42 28.52697 -81.33468 770 ft 108 kts 233°
2026-04-29 02:42 28.52457 -81.34328 978 ft 117 kts 254°
2026-04-29 02:42 28.52259 -81.35214 1242 ft 112 kts 247°
2026-04-29 02:43 28.51992 -81.35970 1473 ft 93 kts 236°
2026-04-29 02:43 28.51720 -81.36540 1691 ft 73 kts 228°
2026-04-29 02:43 28.51493 -81.37045 1695 ft 87 kts 241°
2026-04-29 02:43 28.51448 -81.37705 1789 ft 81 kts 317°
2026-04-29 02:44 28.51931 -81.37627 1731 ft 84 kts 64°
2026-04-29 02:44 28.52129 -81.36898 1705 ft 100 kts 82°
2026-04-29 02:44 28.52274 -81.36064 1630 ft 120 kts 83°
2026-04-29 02:44 28.52310 -81.35148 1823 ft 109 kts 97°
2026-04-29 02:45 28.52756 -81.34453 1791 ft 137 kts 24°
2026-04-29 02:45 28.53841 -81.34409 1446 ft 168 kts 359°
2026-04-29 02:45 28.54718 -81.34914 2020 ft 127 kts 289°
2026-04-29 02:45 28.54383 -81.35846 1539 ft 155 kts 192°
2026-04-29 02:46 28.53413 -81.36477 1368 ft 164 kts 224°
2026-04-29 02:46 28.52956 -81.37607 1518 ft 155 kts 249°
2026-04-29 02:46 28.52657 -81.38796 1539 ft 157 kts 249°
2026-04-29 02:46 28.52335 -81.40012 1499 ft 162 kts 249°
2026-04-29 02:47 28.52070 -81.41263 1599 ft 160 kts 255°
2026-04-29 02:47 28.51856 -81.42481 1607 ft 162 kts 254°
2026-04-29 02:47 28.51626 -81.43770 1605 ft 166 kts 256°
2026-04-29 02:47 28.51337 -81.45036 1563 ft 167 kts 233°
2026-04-29 02:48 28.50539 -81.45937 1672 ft 159 kts 222°
2026-04-29 02:48 28.49825 -81.46885 1768 ft 157 kts 227°
2026-04-29 02:48 28.49225 -81.47947 1772 ft 162 kts 235°
2026-04-29 02:48 28.48634 -81.49027 1848 ft 159 kts 230°
2026-04-29 02:49 28.47942 -81.50009 1911 ft 157 kts 225°
2026-04-29 02:49 28.47264 -81.50993 1921 ft 162 kts 231°
2026-04-29 02:49 28.46746 -81.52140 2007 ft 160 kts 240°
2026-04-29 02:49 28.46292 -81.53255 2254 ft 149 kts 240°
2026-04-29 02:50 28.45888 -81.54264 2621 ft 133 kts 243°
2026-04-29 02:50 28.45530 -81.55210 2906 ft 127 kts 245°
2026-04-29 02:50 28.45226 -81.56132 3156 ft 124 kts 248°
2026-04-29 02:50 28.44950 -81.57062 3381 ft 125 kts 252°
2026-04-29 02:51 28.44647 -81.57971 3590 ft 127 kts 245°
2026-04-29 02:51 28.44290 -81.58912 3804 ft 128 kts 246°
2026-04-29 02:51 28.43935 -81.59850 3988 ft 134 kts 245°
2026-04-29 02:51 28.43577 -81.60800 4282 ft 127 kts 246°
2026-04-29 02:52 28.43232 -81.61755 4447 ft 134 kts 247°
2026-04-29 02:52 28.42862 -81.62762 4589 ft 138 kts 246°
2026-04-29 02:52 28.42456 -81.63805 4574 ft 151 kts 243°
2026-04-29 02:52 28.42014 -81.64919 4587 ft 158 kts 247°
2026-04-29 02:53 28.41531 -81.66069 4577 ft 165 kts 239°
2026-04-29 02:53 28.40963 -81.67239 4522 ft 172 kts 242°
2026-04-29 02:53 28.40445 -81.68465 4526 ft 173 kts 243°
2026-04-29 02:53 28.39973 -81.69732 4517 ft 176 kts 250°
2026-04-29 02:54 28.39607 -81.71056 4529 ft 176 kts 251°
2026-04-29 02:54 28.39217 -81.72385 4524 ft 177 kts 249°
2026-04-29 02:54 28.38755 -81.73658 4548 ft 176 kts 246°
2026-04-29 02:54 28.38305 -81.74960 4498 ft 180 kts 246°
2026-04-29 02:55 28.37826 -81.76269 4518 ft 178 kts 247°
2026-04-29 02:55 28.37398 -81.77605 4439 ft 183 kts 247°
2026-04-29 02:55 28.36867 -81.78955 4258 ft 190 kts 244°
2026-04-29 02:55 28.36335 -81.80313 4165 ft 190 kts 243°
2026-04-29 02:56 28.35691 -81.81651 3843 ft 200 kts 238°
2026-04-29 02:56 28.35026 -81.83057 3476 ft 207 kts 244°
2026-04-29 02:56 28.34457 -81.84559 3157 ft 207 kts 244°
2026-04-29 02:56 28.33873 -81.85999 3145 ft 193 kts 243°
2026-04-29 02:57 28.33321 -81.87367 3030 ft 192 kts 243°
2026-04-29 02:57 28.32787 -81.88738 2971 ft 187 kts 242°
2026-04-29 02:57 28.32228 -81.90062 2948 ft 181 kts 242°
2026-04-29 02:57 28.31727 -81.91288 3165 ft 166 kts 245°
2026-04-29 02:58 28.31292 -81.92584 2939 ft 181 kts 248°
2026-04-29 02:58 28.30891 -81.93914 2969 ft 176 kts 250°
2026-04-29 02:58 28.30662 -81.95283 2848 ft 182 kts 264°
2026-04-29 02:58 28.30338 -81.96657 2777 ft 180 kts 241°
2026-04-29 02:59 28.29810 -81.97942 2769 ft 179 kts 242°
2026-04-29 02:59 28.29332 -81.99257 2669 ft 182 kts 244°
2026-04-29 02:59 28.28815 -82.00481 2844 ft 170 kts 240°
2026-04-29 02:59 28.28332 -82.01778 2537 ft 188 kts 251°
2026-04-29 03:00 28.28265 -82.03262 2377 ft 192 kts 281°
2026-04-29 03:00 28.28872 -82.04610 2243 ft 192 kts 290°
2026-04-29 03:00 28.28875 -82.06023 2365 ft 178 kts 251°
2026-04-29 03:00 28.28356 -82.07324 2192 ft 184 kts 236°
2026-04-29 03:01 28.27808 -82.08599 2144 ft 178 kts 246°
2026-04-29 03:01 28.27387 -82.09929 1988 ft 180 kts 245°
2026-04-29 03:01 28.26903 -82.11243 1852 ft 180 kts 243°
2026-04-29 03:01 28.26509 -82.12604 1659 ft 184 kts 249°
2026-04-29 03:02 28.26276 -82.14047 1502 ft 186 kts 259°
2026-04-29 03:02 28.26116 -82.15469 1459 ft 179 kts 253°
2026-04-29 03:02 28.25603 -82.16735 1292 ft 177 kts 233°
2026-04-29 03:02 28.24822 -82.17812 1154 ft 175 kts 223°
2026-04-29 03:03 28.23988 -82.18797 1059 ft 165 kts 220°
2026-04-29 03:03 28.23237 -82.19649 1219 ft 139 kts 223°
2026-04-29 03:03 28.22697 -82.20402 1372 ft 108 kts 226°
2026-04-29 03:03 28.22294 -82.21040 1406 ft 101 kts 221°
2026-04-29 03:04 28.21769 -82.21566 1353 ft 92 kts 192°
2026-04-29 03:04 28.21241 -82.21521 1474 ft 75 kts 141°
2026-04-29 03:04 28.20857 -82.21082 1162 ft 72 kts 134°
2026-04-29 03:04 28.20522 -82.20722 892 ft 71 kts 135°
2026-04-29 03:05 28.20144 -82.20354 782 ft 72 kts 135°
2026-04-29 03:05 28.19815 -82.19905 771 ft 73 kts 114°
2026-04-29 03:05 28.19646 -82.19389 826 ft 69 kts 89°
2026-04-29 03:05 28.19918 -82.18904 749 ft 83 kts 46°
2026-04-29 03:06 28.20388 -82.18496 636 ft 83 kts 43°
2026-04-29 03:06 28.20828 -82.18071 545 ft 81 kts 49°
2026-04-29 03:06 28.21225 -82.17619 451 ft 82 kts 48°
2026-04-29 03:06 28.21651 -82.17197 346 ft 80 kts 46°
2026-04-29 03:07 28.22053 -82.16766 234 ft 81 kts 46°
2026-04-29 03:07 28.22462 -82.16331 99 ft 77 kts 45°
2026-04-29 03:07 28.22784 -82.15982 83 ft 49 kts 39°
2026-04-29 03:07 28.22947 -82.15822 83 ft 14 kts 56°
2026-04-29 03:08 28.22950 -82.15816 83 ft 2 kts 56°
2026-04-29 03:08 28.22973 -82.15792 83 ft 23 kts 40°
2026-04-29 03:09 28.23247 -82.15514 83 ft 72 kts 45°
2026-04-29 03:09 28.23538 -82.15121 323 ft 59 kts 59°
2026-04-29 03:09 28.23761 -82.14667 429 ft 73 kts 68°
2026-04-29 03:09 28.23906 -82.14135 750 ft 67 kts 101°
2026-04-29 03:10 28.23465 -82.13760 863 ft 84 kts 140°
2026-04-29 03:10 28.23015 -82.13354 1183 ft 79 kts 117°
2026-04-29 03:10 28.22932 -82.12821 1548 ft 74 kts 89°
2026-04-29 03:10 28.23097 -82.12278 1854 ft 78 kts 52°
2026-04-29 03:11 28.23602 -82.11867 1731 ft 105 kts 30°
2026-04-29 03:11 28.24382 -82.11659 1765 ft 102 kts 22°
2026-04-29 03:11 28.25002 -82.11504 1868 ft 78 kts
2026-04-29 03:11 28.25530 -82.11820 1436 ft 92 kts 293°
2026-04-29 03:12 28.25480 -82.12478 1077 ft 87 kts 239°
2026-04-29 03:12 28.25182 -82.13032 769 ft 79 kts 226°
2026-04-29 03:12 28.24854 -82.13543 480 ft 86 kts 231°
2026-04-29 03:12 28.24520 -82.14110 444 ft 84 kts 227°
2026-04-29 03:13 28.24126 -82.14579 341 ft 82 kts 220°
2026-04-29 03:13 28.23726 -82.15013 233 ft 78 kts 217°
2026-04-29 03:13 28.23346 -82.15413 97 ft 64 kts 218°
2026-04-29 03:13 28.23119 -82.15643 83 ft 6 kts 225°
2026-04-29 03:14 28.23116 -82.15646 83 ft 3 kts 226°
2026-04-29 03:14 28.22907 -82.15870 94 ft 65 kts 219°
2026-04-29 03:14 28.22860 -82.15974 148 ft 61 kts 275°